Regional Weather Roundup
Issued by NWS

Home | Current Version | Previous Version | Graphics & Text | Print | Product List | Glossary On
Versions: 1 2 3 4 5 6 7 8 9 10 11 12 13 14 15 16 17 18 19 20 21 22 23 24 25 26 27 28 29 30 31 32 33 34 35 36 37 38 39 40 41 42 43 44 45 46 47 48 49 50
000
ASUS43 KLOT 251306
RWRIL

ILLINOIS REGIONAL WEATHER ROUNDUP
NATIONAL WEATHER SERVICE CHICAGO/ROMEOVILLE IL
700 AM CST SUN JAN 25 2015

NOTE: "FAIR" INDICATES FEW OR NO CLOUDS BELOW 12,000 FEET WITH NO
SIGNIFICANT WEATHER AND/OR OBSTRUCTIONS TO VISIBILITY.

* THESE STATIONS ARE NOT UNDER NWS QUALITY CONTROL. THEY ALSO MAY NOT
  REPORT WEATHER SUCH AS PRECIPITATION OR FOG.

ILZ001-002-007-009-015-016-024-251400-
NORTHWEST ILLINOIS

CITY           SKY/WX    TMP DP  RH WIND       PRES   REMARKS
MOLINE         LGT SNOW  33  31  92 NE20      29.65R FOG     WCI  21
STERLING*      CLOUDY    32  28  86 E21G28    29.69R WCI  20
SAVANNA*       LGT SNOW  32  29  90 NE16G22   29.71R WCI  21
$$

ILZ003-004-008-010-011-017-018-251400-
NORTH CENTRAL ILLINOIS

CITY           SKY/WX    TMP DP  RH WIND       PRES   REMARKS
ROCKFORD       LGT SNOW  30  25  81 NE17G30   29.75R WCI  18
FREEPORT*      LGT SNOW  29  26  88 NE16G25   29.75R WCI  17
ROCHELLE*      CLOUDY    30  28  92 NE25      29.71R WCI  16
DE KALB*       MIX PCPN  29  27  92 NE18G28   29.71R WCI  17
PERU*          LGT SNOW  33  33  96 E15       29.67R WCI  23
$$

ILZ005-006-012>014-019>023-251400-
NORTHEAST ILLINOIS

CITY           SKY/WX    TMP DP  RH WIND       PRES   REMARKS
CHICAGO-OHARE  LGTSLEET  32  30  92 NE21      29.73R WCI  20
CHICAGO-MIDWAY LGT RAIN  37  34  89 NE12      29.71R WCI  29
AURORA         LGT SNOW  33  29  85 NE24      29.70R FOG     WCI  20
LANSING*       CLOUDY    34  32  92 NE9       29.71R FOG     WCI  27
JOLIET*        LGT RAIN  33  32  94 NE9       29.71R WCI  26
WAUKEGAN       LGT SNOW  29  26  89 N15G24    29.76S FOG     WCI  18
DUPAGE AIRPORT LGT SNOW  32  30  92 NE18G26   29.71R FOG     WCI  20
KANKAKEE*      LGT RAIN  33  33  99 NE10      29.68S WCI  25
WHEELING       LGT SNOW  32  29  88 NE13G24   29.76R FOG     WCI  22
MORRIS*        LGT RAIN  33  33  99 NE6       29.69R WCI  28
ROMEOVILLE*    LGT RAIN  34  33  95 NE14      29.70R WCI  25
NORTHERLY ISL    N/A     34  33  96 N8          N/A  WCI  27
$$

LMZ740>746-251400-
SOUTHERN LAKE MICHIGAN

STATION/POSITION SKY/WX   TEMP    WIND        PRES    VSBY  WAVE
                          AIR SEA DIR/SP/G                  HT/PER
                          (F)     (DEG/KT/KT) (MB)    (MI)  (FT/S)
WAUKEGAN HARBOR            30      30/ 27/ 37   N/A
HARRISON CRIB              35      20/  9/ 10   N/A
BURNHAM HARBOR             35      10/  8/  8   N/A
CALUMET HARBOR             34      20/  6/  7   N/A
MICHIGAN CITY              33      30/ 12/ 13   N/A
$$

ILZ025>027-034>036-040-047-049-050-058-095>099-251400-
WEST-CENTRAL ILLINOIS

CITY           SKY/WX    TMP DP  RH WIND       PRES   REMARKS
QUINCY         LGT RAIN  40  37  89 CALM      29.57S
GALESBURG*     LGT RAIN  35  34  96 NE12G18   29.61R WCI  26
MACOMB*        LGT RAIN  37  37 100 N3        29.61R
JACKSONVILLE*  LGT RAIN  40  38  95 E3        29.58S
PITTSFIELD*    CLOUDY    41  38  89 CALM      29.58F
$$

ILZ028>032-037-038-041>044-048-051>054-059>061-251400-
CENTRAL ILLINOIS

CITY           SKY/WX    TMP DP  RH WIND       PRES   REMARKS
PONTIAC        LGT RAIN  35  34  98 NE17      29.66R WCI  25
BLOOMINGTON    LGT RAIN  34  33  96 E6        29.63R FOG     WCI  29
DECATUR        LGT RAIN  40  36  86 W7        29.60S
PEORIA         LGT RAIN  37  34  89 NE12      29.62R WCI  29
LACON*         RAIN      34  32  93 E14       29.65R WCI  24
LINCOLN*       LGT RAIN  35  33  92 CALM      29.61S
SPRINGFIELD    RAIN      39  37  92 CALM      29.60S
TAYLORVILLE    LGT RAIN  37  36  93 S3        29.60S
$$

ILZ033-039-045-046-055>057-062-063-251400-
EAST-CENTRAL ILLINOIS

CITY           SKY/WX    TMP DP  RH WIND       PRES   REMARKS
CHAMPAIGN      LGT RAIN  35  32  88 E6        29.62R WCI  30
DANVILLE*      LGT RAIN  35  32  90 E3        29.62R
RANTOUL*       CLOUDY    35  33  93 E3        29.63R
MATTOON        LGT RAIN  38  32  79 SW6       29.60S WCI  33
PARIS*         CLOUDY    37  33  87 SE5       29.63S WCI  33
$$

ILZ079-100>102-251400-
SOUTHWEST ILLINOIS

CITY           SKY/WX    TMP DP  RH WIND       PRES   REMARKS
ALTON          CLOUDY    41  39  93 SW7       29.60S
BELLEVILLE     CLOUDY    42  41  99 S5        29.60S
CAHOKIA*       CLOUDY    45  41  86 CALM      29.60S
SPARTA*        LGT RAIN  43  35  73 S9        29.63S
$$

ILZ064>066-069>071-074>076-080>082-084>086-088>090-092>094-251400-
SOUTH-CENTRAL ILLINOIS

CITY           SKY/WX    TMP DP  RH WIND       PRES   REMARKS
CARBONDALE     LGT RAIN  41  35  79 S10       29.65F
CAIRO*         DRIZZLE   42  35  75 S5        29.70F
EFFINGHAM*     RAIN      39  36  87 CALM      29.63S
MARION         LGT RAIN  43  34  70 S12       29.67S
MT. VERNON     CLOUDY    41  32  70 S9        29.65S
CENTRALIA*     LGT RAIN  40  35  81 S13       29.62F
SALEM*         LGT RAIN  43  38  83 S5        29.63S
METROPOLIS*    CLOUDY    42  35  75 S6        29.69F
$$

ILZ067-068-072-073-078-083-087-091-251400-
SOUTHEAST ILLINOIS

CITY           SKY/WX    TMP DP  RH WIND       PRES   REMARKS
LAWRENCEVILLE  CLOUDY    38  33  82 S7        29.65S WCI  33
FLORA*         CLOUDY    39  34  80 S10       29.64R WCI  33
FAIRFIELD*     CLOUDY    41  34  75 S7        29.64S
HARRISBURG*    CLOUDY    42  33  69 SW8       29.68S
ROBINSON*      CLOUDY    38  33  81 S7        29.65S WCI  33
CARMI*         CLOUDY    39  36  87 S7        29.66S WCI  34
$$

ABBREVIATIONS USED IN REMARKS
   TC - TEMPERATURE IN CELSIUS
  WCI - WIND CHILL INDEX
   HX - HEAT INDEX
  VSB - VISIBILITY
$$




USA.gov is the U.S. government's official web portal to all federal, state and local government web resources and services.